Time,TemperatureF,DewpointF,PressureIn,WindDirection,WindDirectionDegrees,WindSpeedMPH,WindSpeedGustMPH,Humidity,HourlyPrecipIn,Conditions,Clouds,dailyrainin,SoftwareType,DateUTC
2013-01-12 00:00:00,75.0,65.4,30.10,SE,135,4.6,5.1,72,0.00,CLR,,0.00,WeatherDisplay:10.37,2013-01-12 05:00:00,
2013-01-12 00:02:00,74.8,65.6,30.10,SE,135,4.6,5.1,73,0.00,CLR,,0.00,WeatherDisplay:10.37,2013-01-12 05:02:00,
2013-01-12 00:04:00,74.8,65.6,30.10,SE,135,4.6,5.1,73,0.00,CLR,,0.00,WeatherDisplay:10.37,2013-01-12 05:04:00,
2013-01-12 00:09:00,75.0,66.2,30.11,ESE,112,9.2,9.2,74,0.00,CLR,,0.00,WeatherDisplay:10.37,2013-01-12 05:09:00,
2013-01-12 00:14:00,75.0,65.8,30.11,SE,135,6.9,6.9,73,0.00,CLR,,0.00,WeatherDisplay:10.37,2013-01-12 05:14:00,
2013-01-12 00:19:00,75.0,65.8,30.11,East,90,8.1,8.1,73,0.00,CLR,,0.00,WeatherDisplay:10.37,2013-01-12 05:19:00,
2013-01-12 00:24:00,75.0,65.8,30.11,ESE,112,4.6,4.9,73,0.00,CLR,,0.00,WeatherDisplay:10.37,2013-01-12 05:24:00,
2013-01-12 00:29:00,75.0,65.8,30.10,NNW,338,8.1,8.1,73,0.00,CLR,,0.00,WeatherDisplay:10.37,2013-01-12 05:29:00,
2013-01-12 00:34:00,75.4,66.1,30.10,SSE,158,6.9,6.9,73,0.00,CLR,,0.00,WeatherDisplay:10.37,2013-01-12 05:34:00,
2013-01-12 00:39:00,75.2,65.9,30.10,ESE,112,5.8,5.8,73,0.00,CLR,,0.00,WeatherDisplay:10.37,2013-01-12 05:39:00,
2013-01-12 00:44:00,75.2,65.9,30.10,ESE,112,4.6,4.8,73,0.00,CLR,,0.00,WeatherDisplay:10.37,2013-01-12 05:44:00,
2013-01-12 00:49:00,75.2,66.3,30.11,ESE,112,4.6,4.6,74,0.00,CLR,,0.00,WeatherDisplay:10.37,2013-01-12 05:49:00,
2013-01-12 00:54:00,75.2,65.9,30.11,SE,135,5.8,5.8,73,0.00,CLR,,0.00,WeatherDisplay:10.37,2013-01-12 05:54:00,
2013-01-12 00:59:00,75.2,66.3,30.11,NNE,22,8.1,8.1,74,0.00,CLR,,0.00,WeatherDisplay:10.37,2013-01-12 05:59:00,
2013-01-12 01:04:00,75.4,66.5,30.11,NE,45,4.6,4.8,74,0.00,CLR,,0.00,WeatherDisplay:10.37,2013-01-12 06:04:00,
2013-01-12 01:09:00,75.6,66.3,30.10,ESE,112,8.1,8.1,73,0.00,CLR,,0.00,WeatherDisplay:10.37,2013-01-12 06:09:00,
2013-01-12 01:14:00,75.4,66.5,30.10,ESE,112,6.9,6.9,74,0.00,CLR,,0.00,WeatherDisplay:10.37,2013-01-12 06:14:00,
2013-01-12 01:19:00,75.2,66.3,30.10,NE,45,4.6,4.7,74,0.00,CLR,,0.00,WeatherDisplay:10.37,2013-01-12 06:19:00,
2013-01-12 01:24:00,75.4,66.9,30.10,SE,135,5.8,5.8,75,0.00,CLR,,0.00,WeatherDisplay:10.37,2013-01-12 06:24:00,
2013-01-12 01:30:00,75.2,66.7,30.10,South,180,6.9,6.9,75,0.00,CLR,,0.00,WeatherDisplay:10.37,2013-01-12 06:30:00,
2013-01-12 01:35:00,75.0,66.6,30.10,SE,135,4.6,5.2,75,0.00,CLR,,0.00,WeatherDisplay:10.37,2013-01-12 06:35:00,
2013-01-12 01:40:00,75.0,66.6,30.10,SE,135,8.1,8.1,75,0.00,CLR,,0.00,WeatherDisplay:10.37,2013-01-12 06:40:00,
2013-01-12 01:45:00,75.0,66.6,30.10,ESE,112,5.8,5.8,75,0.00,CLR,,0.00,WeatherDisplay:10.37,2013-01-12 06:45:00,
2013-01-12 01:50:00,74.8,66.4,30.10,East,90,4.6,4.9,75,0.00,CLR,,0.00,WeatherDisplay:10.37,2013-01-12 06:50:00,
2013-01-12 01:55:00,75.2,66.7,30.10,SE,135,4.6,4.6,75,0.00,CLR,,0.00,WeatherDisplay:10.37,2013-01-12 06:55:00,
2013-01-12 02:00:00,75.2,66.7,30.10,SE,135,8.1,8.1,75,0.00,CLR,,0.00,WeatherDisplay:10.37,2013-01-12 07:00:00,
2013-01-12 02:05:00,75.0,66.2,30.10,ESE,112,6.9,6.9,74,0.00,CLR,,0.00,WeatherDisplay:10.37,2013-01-12 07:05:00,
2013-01-12 02:10:00,75.0,66.2,30.09,SE,135,8.1,8.1,74,0.00,CLR,,0.00,WeatherDisplay:10.37,2013-01-12 07:10:00,
2013-01-12 02:15:00,75.0,66.2,30.09,ENE,68,6.9,6.9,74,0.00,CLR,,0.00,WeatherDisplay:10.37,2013-01-12 07:15:00,
2013-01-12 02:20:00,75.2,65.9,30.09,ESE,112,6.9,6.9,73,0.00,CLR,,0.00,WeatherDisplay:10.37,2013-01-12 07:20:00,
2013-01-12 02:25:00,75.2,65.6,30.09,East,90,3.5,4.1,72,0.00,CLR,,0.00,WeatherDisplay:10.37,2013-01-12 07:25:00,
2013-01-12 02:30:00,75.2,65.6,30.08,SE,135,6.9,6.9,72,0.00,CLR,,0.00,WeatherDisplay:10.37,2013-01-12 07:30:00,
2013-01-12 02:35:00,75.2,65.6,30.08,ENE,68,6.9,6.9,72,0.00,CLR,,0.00,WeatherDisplay:10.37,2013-01-12 07:35:00,
2013-01-12 02:40:00,75.2,65.1,30.08,ESE,112,3.5,4.6,71,0.00,CLR,,0.00,WeatherDisplay:10.37,2013-01-12 07:40:00,
2013-01-12 02:45:00,75.2,65.1,30.08,ESE,112,5.8,5.8,71,0.00,CLR,,0.00,WeatherDisplay:10.37,2013-01-12 07:45:00,
2013-01-12 02:50:00,75.4,65.3,30.08,ESE,112,2.3,4.5,71,0.00,CLR,,0.00,WeatherDisplay:10.37,2013-01-12 07:50:00,
2013-01-12 02:55:00,75.2,65.6,30.08,ESE,112,6.9,6.9,72,0.00,CLR,,0.00,WeatherDisplay:10.37,2013-01-12 07:55:00,
2013-01-12 03:00:00,75.0,65.4,30.08,ESE,112,5.8,5.8,72,0.00,CLR,,0.00,WeatherDisplay:10.37,2013-01-12 08:00:00,
2013-01-12 03:05:00,75.0,65.4,30.08,ESE,112,6.9,6.9,72,0.00,CLR,,0.00,WeatherDisplay:10.37,2013-01-12 08:05:00,
2013-01-12 03:10:00,74.7,65.0,30.08,SSE,158,6.9,6.9,72,0.00,CLR,,0.00,WeatherDisplay:10.37,2013-01-12 08:10:00,
2013-01-12 03:15:00,74.7,65.0,30.08,SE,135,6.9,6.9,72,0.00,CLR,,0.00,WeatherDisplay:10.37,2013-01-12 08:15:00,
2013-01-12 03:20:00,74.8,65.2,30.08,SE,135,5.8,5.8,72,0.00,CLR,,0.00,WeatherDisplay:10.37,2013-01-12 08:20:00,
2013-01-12 03:25:00,74.7,65.0,30.08,ESE,112,6.9,6.9,72,0.00,CLR,,0.00,WeatherDisplay:10.37,2013-01-12 08:25:00,
2013-01-12 03:30:00,74.7,65.0,30.07,SE,135,5.8,5.8,72,0.00,CLR,,0.00,WeatherDisplay:10.37,2013-01-12 08:30:00,
2013-01-12 03:35:00,74.7,65.4,30.07,SE,135,4.6,4.6,73,0.00,CLR,,0.00,WeatherDisplay:10.37,2013-01-12 08:35:00,
2013-01-12 03:40:00,74.8,65.6,30.07,ESE,112,5.8,5.8,73,0.00,CLR,,0.00,WeatherDisplay:10.37,2013-01-12 08:40:00,
2013-01-12 03:45:00,74.7,65.4,30.07,ENE,68,4.6,4.6,73,0.00,CLR,,0.00,WeatherDisplay:10.37,2013-01-12 08:45:00,
2013-01-12 03:50:00,74.5,65.3,30.08,ESE,112,3.5,4.4,73,0.00,CLR,,0.00,WeatherDisplay:10.37,2013-01-12 08:50:00,
2013-01-12 03:55:00,74.7,65.4,30.08,ESE,112,4.6,4.6,73,0.00,CLR,,0.00,WeatherDisplay:10.37,2013-01-12 08:55:00,
2013-01-12 04:00:00,74.5,65.3,30.08,ENE,68,4.6,4.6,73,0.00,CLR,,0.00,WeatherDisplay:10.37,2013-01-12 09:00:00,
2013-01-12 04:05:00,74.7,65.4,30.08,East,90,5.8,5.8,73,0.00,CLR,,0.00,WeatherDisplay:10.37,2013-01-12 09:05:00,
2013-01-12 04:10:00,74.5,65.3,30.07,SSE,158,5.8,5.8,73,0.00,CLR,,0.00,WeatherDisplay:10.37,2013-01-12 09:10:00,
2013-01-12 04:15:00,74.7,65.4,30.07,ESE,112,8.1,8.1,73,0.00,CLR,,0.00,WeatherDisplay:10.37,2013-01-12 09:15:00,
2013-01-12 04:20:00,74.5,65.3,30.07,ENE,68,4.6,4.6,73,0.00,CLR,,0.00,WeatherDisplay:10.37,2013-01-12 09:20:00,
2013-01-12 04:25:00,74.5,65.3,30.07,ESE,112,5.8,5.8,73,0.00,CLR,,0.00,WeatherDisplay:10.37,2013-01-12 09:25:00,
2013-01-12 04:30:00,74.3,65.1,30.07,ESE,112,5.8,5.8,73,0.00,CLR,,0.00,WeatherDisplay:10.37,2013-01-12 09:30:00,
2013-01-12 04:35:00,74.3,65.5,30.07,ESE,112,4.6,4.6,74,0.00,CLR,,0.00,WeatherDisplay:10.37,2013-01-12 09:35:00,
2013-01-12 04:40:00,74.3,65.1,30.07,SE,135,4.6,4.6,73,0.00,CLR,,0.00,WeatherDisplay:10.37,2013-01-12 09:40:00,
2013-01-12 04:45:00,74.3,65.5,30.07,ENE,68,4.6,4.6,74,0.00,CLR,,0.00,WeatherDisplay:10.37,2013-01-12 09:45:00,
2013-01-12 04:50:00,74.1,65.3,30.07,ESE,112,3.5,3.7,74,0.00,CLR,,0.00,WeatherDisplay:10.37,2013-01-12 09:50:00,
2013-01-12 04:55:00,74.1,65.3,30.07,SE,135,5.8,5.8,74,0.00,CLR,,0.00,WeatherDisplay:10.37,2013-01-12 09:55:00,
2013-01-12 05:00:00,73.9,65.1,30.07,ESE,112,4.6,4.6,74,0.00,CLR,,0.00,WeatherDisplay:10.37,2013-01-12 10:00:00,
2013-01-12 05:05:00,73.9,65.1,30.07,ENE,68,5.8,5.8,74,0.00,CLR,,0.00,WeatherDisplay:10.37,2013-01-12 10:05:00,
2013-01-12 05:10:00,73.8,65.0,30.06,ENE,68,4.6,4.6,74,0.00,CLR,,0.00,WeatherDisplay:10.37,2013-01-12 10:10:00,
2013-01-12 05:15:00,73.8,65.3,30.06,ENE,68,6.9,6.9,75,0.00,CLR,,0.00,WeatherDisplay:10.37,2013-01-12 10:15:00,
2013-01-12 05:20:00,73.9,65.1,30.06,ESE,112,5.8,5.8,74,0.00,CLR,,0.00,WeatherDisplay:10.37,2013-01-12 10:20:00,
2013-01-12 05:25:00,73.8,65.0,30.06,SE,135,4.6,4.6,74,0.00,CLR,,0.00,WeatherDisplay:10.37,2013-01-12 10:25:00,
2013-01-12 05:30:00,73.9,65.1,30.06,SE,135,5.8,5.8,74,0.00,CLR,,0.00,WeatherDisplay:10.37,2013-01-12 10:30:00,
2013-01-12 05:35:00,73.9,65.1,30.06,ESE,112,5.8,5.8,74,0.00,CLR,,0.00,WeatherDisplay:10.37,2013-01-12 10:35:00,
2013-01-12 05:40:00,73.8,65.0,30.06,ENE,68,6.9,6.9,74,0.00,CLR,,0.00,WeatherDisplay:10.37,2013-01-12 10:40:00,
2013-01-12 05:45:00,73.8,65.0,30.06,East,90,4.6,4.6,74,0.00,CLR,,0.00,WeatherDisplay:10.37,2013-01-12 10:45:00,
2013-01-12 05:50:00,73.9,65.1,30.07,South,180,3.5,3.9,74,0.00,CLR,,0.00,WeatherDisplay:10.37,2013-01-12 10:50:00,
2013-01-12 05:55:00,73.9,65.1,30.07,South,180,4.6,4.6,74,0.00,CLR,,0.00,WeatherDisplay:10.37,2013-01-12 10:55:00,
2013-01-12 06:00:00,73.8,65.0,30.07,ENE,68,4.6,4.6,74,0.00,CLR,,0.00,WeatherDisplay:10.37,2013-01-12 11:00:00,
2013-01-12 06:05:00,73.8,64.6,30.07,SE,135,8.1,8.1,73,0.00,CLR,,0.00,WeatherDisplay:10.37,2013-01-12 11:05:00,
2013-01-12 06:10:00,73.8,64.6,30.07,ESE,112,5.8,5.8,73,0.00,CLR,,0.00,WeatherDisplay:10.37,2013-01-12 11:10:00,
2013-01-12 06:15:00,73.9,64.7,30.07,SSE,158,4.6,4.6,73,0.00,CLR,,0.00,WeatherDisplay:10.37,2013-01-12 11:15:00,
2013-01-12 06:20:00,73.9,64.3,30.07,ESE,112,8.1,8.1,72,0.00,CLR,,0.00,WeatherDisplay:10.37,2013-01-12 11:20:00,
2013-01-12 06:25:00,74.3,64.7,30.07,NNW,338,6.9,6.9,72,0.00,CLR,,0.00,WeatherDisplay:10.37,2013-01-12 11:25:00,
2013-01-12 06:30:00,74.3,64.7,30.08,SE,135,3.5,3.5,72,0.00,CLR,,0.00,WeatherDisplay:10.37,2013-01-12 11:30:00,
2013-01-12 06:35:00,74.3,65.1,30.08,ESE,112,4.6,4.6,73,0.00,CLR,,0.00,WeatherDisplay:10.37,2013-01-12 11:35:00,
2013-01-12 06:40:00,74.1,64.5,30.08,ENE,68,4.6,4.6,72,0.00,CLR,,0.00,WeatherDisplay:10.37,2013-01-12 11:40:00,
2013-01-12 06:45:00,74.1,64.5,30.08,ESE,112,4.6,4.6,72,0.00,CLR,,0.00,WeatherDisplay:10.37,2013-01-12 11:45:00,
2013-01-12 06:51:00,74.3,65.1,30.08,ENE,68,3.5,3.9,73,0.00,CLR,,0.00,WeatherDisplay:10.37,2013-01-12 11:51:00,
2013-01-12 06:56:00,74.3,65.5,30.08,ENE,68,5.8,5.8,74,0.00,CLR,,0.00,WeatherDisplay:10.37,2013-01-12 11:56:00,
2013-01-12 07:01:00,73.9,65.1,30.08,East,90,5.8,5.8,74,0.00,CLR,,0.00,WeatherDisplay:10.37,2013-01-12 12:01:00,
2013-01-12 07:06:00,73.9,65.1,30.08,ESE,112,6.9,6.9,74,0.00,CLR,,0.00,WeatherDisplay:10.37,2013-01-12 12:06:00,
2013-01-12 07:11:00,73.8,65.0,30.08,ENE,68,4.6,4.6,74,0.00,CLR,,0.00,WeatherDisplay:10.37,2013-01-12 12:11:00,
2013-01-12 07:16:00,73.9,65.1,30.08,ESE,112,6.9,6.9,74,0.00,CLR,,0.00,WeatherDisplay:10.37,2013-01-12 12:16:00,
2013-01-12 07:21:00,73.9,65.5,30.08,NNE,22,3.5,3.9,75,0.00,CLR,,0.00,WeatherDisplay:10.37,2013-01-12 12:21:00,
2013-01-12 07:26:00,73.9,65.5,30.08,ESE,112,4.6,4.6,75,0.00,CLR,,0.00,WeatherDisplay:10.37,2013-01-12 12:26:00,
2013-01-12 07:31:00,73.9,65.1,30.09,East,90,3.5,3.5,74,0.00,CLR,,0.00,WeatherDisplay:10.37,2013-01-12 12:31:00,
2013-01-12 07:36:00,73.9,65.1,30.09,SSE,158,8.1,8.1,74,0.00,CLR,,0.00,WeatherDisplay:10.37,2013-01-12 12:36:00,
2013-01-12 07:41:00,74.1,65.3,30.09,East,90,3.5,3.6,74,0.00,CLR,,0.00,WeatherDisplay:10.37,2013-01-12 12:41:00,
2013-01-12 07:46:00,74.3,65.5,30.09,ESE,112,4.6,4.6,74,0.00,CLR,,0.00,WeatherDisplay:10.37,2013-01-12 12:46:00,
2013-01-12 07:51:00,74.5,65.6,30.09,ENE,68,3.5,3.5,74,0.00,CLR,,0.00,WeatherDisplay:10.37,2013-01-12 12:51:00,
2013-01-12 07:56:00,74.5,65.3,30.09,ENE,68,5.8,5.8,73,0.00,CLR,,0.00,WeatherDisplay:10.37,2013-01-12 12:56:00,
2013-01-12 08:01:00,74.7,65.4,30.09,ESE,112,4.6,4.6,73,0.00,CLR,,0.00,WeatherDisplay:10.37,2013-01-12 13:01:00,
2013-01-12 08:06:00,74.5,65.3,30.09,East,90,4.6,4.6,73,0.00,CLR,,0.00,WeatherDisplay:10.37,2013-01-12 13:06:00,
2013-01-12 08:11:00,75.0,65.8,30.09,SE,135,5.8,5.8,73,0.00,CLR,,0.00,WeatherDisplay:10.37,2013-01-12 13:11:00,
2013-01-12 08:16:00,75.2,65.9,30.09,ESE,112,8.1,8.1,73,0.00,CLR,,0.00,WeatherDisplay:10.37,2013-01-12 13:16:00,
2013-01-12 08:21:00,74.8,65.6,30.09,NNW,338,8.1,8.1,73,0.00,CLR,,0.00,WeatherDisplay:10.37,2013-01-12 13:21:00,
2013-01-12 08:26:00,74.8,65.6,30.09,ESE,112,8.1,8.1,73,0.00,CLR,,0.00,WeatherDisplay:10.37,2013-01-12 13:26:00,
2013-01-12 08:31:00,75.0,65.8,30.09,ESE,112,4.6,4.6,73,0.00,CLR,,0.00,WeatherDisplay:10.37,2013-01-12 13:31:00,
2013-01-12 08:36:00,75.4,66.1,30.09,ESE,112,3.5,4.0,73,0.00,CLR,,0.00,WeatherDisplay:10.37,2013-01-12 13:36:00,
2013-01-12 08:41:00,75.6,66.3,30.09,NNW,338,4.6,4.6,73,0.00,CLR,,0.00,WeatherDisplay:10.37,2013-01-12 13:41:00,
2013-01-12 08:46:00,75.9,66.2,30.09,SE,135,8.1,8.1,72,0.00,CLR,,0.00,WeatherDisplay:10.37,2013-01-12 13:46:00,
2013-01-12 08:51:00,76.5,66.4,30.08,ESE,112,8.1,8.1,71,0.00,CLR,,0.00,WeatherDisplay:10.37,2013-01-12 13:51:00,
2013-01-12 08:56:00,76.6,66.5,30.08,ESE,112,5.8,5.8,71,0.00,CLR,,0.00,WeatherDisplay:10.37,2013-01-12 13:56:00,
2013-01-12 09:01:00,76.8,66.3,30.08,ESE,112,6.9,6.9,70,0.00,CLR,,0.00,WeatherDisplay:10.37,2013-01-12 14:01:00,
2013-01-12 09:06:00,77.0,66.5,30.08,ENE,68,5.8,5.8,70,0.00,CLR,,0.00,WeatherDisplay:10.37,2013-01-12 14:06:00,
2013-01-12 09:11:00,77.2,66.6,30.08,NE,45,6.9,6.9,70,0.00,CLR,,0.00,WeatherDisplay:10.37,2013-01-12 14:11:00,
2013-01-12 09:16:00,77.4,66.8,30.08,SE,135,4.6,4.6,70,0.00,CLR,,0.00,WeatherDisplay:10.37,2013-01-12 14:16:00,
2013-01-12 09:21:00,77.5,66.6,30.08,ESE,112,6.9,6.9,69,0.00,CLR,,0.00,WeatherDisplay:10.37,2013-01-12 14:21:00,
2013-01-12 09:26:00,77.7,66.7,30.08,ENE,68,4.6,4.6,69,0.00,CLR,,0.00,WeatherDisplay:10.37,2013-01-12 14:26:00,
2013-01-12 09:31:00,78.1,67.1,30.10,East,90,5.8,5.8,69,0.00,CLR,,0.00,WeatherDisplay:10.37,2013-01-12 14:31:00,
2013-01-12 09:36:00,78.3,66.8,30.10,ESE,112,8.1,8.1,68,0.00,CLR,,0.00,WeatherDisplay:10.37,2013-01-12 14:36:00,
2013-01-12 09:41:00,78.3,66.4,30.10,SE,135,5.8,5.8,67,0.00,CLR,,0.00,WeatherDisplay:10.37,2013-01-12 14:41:00,
2013-01-12 09:46:00,78.4,66.6,30.10,East,90,5.8,5.8,67,0.00,CLR,,0.00,WeatherDisplay:10.37,2013-01-12 14:46:00,
2013-01-12 09:51:00,78.8,66.5,30.10,SSE,158,8.1,8.1,66,0.00,CLR,,0.00,WeatherDisplay:10.37,2013-01-12 14:51:00,
2013-01-12 09:56:00,78.8,66.5,30.10,SE,135,8.1,8.1,66,0.00,CLR,,0.00,WeatherDisplay:10.37,2013-01-12 14:56:00,
2013-01-12 10:01:00,79.0,66.6,30.10,SE,135,5.8,5.8,66,0.00,CLR,,0.00,WeatherDisplay:10.37,2013-01-12 15:01:00,
2013-01-12 10:06:00,79.2,66.8,30.10,ESE,112,5.8,5.8,66,0.00,CLR,,0.00,WeatherDisplay:10.37,2013-01-12 15:06:00,
2013-01-12 10:11:00,79.2,66.8,30.11,SE,135,8.1,8.1,66,0.00,CLR,,0.00,WeatherDisplay:10.37,2013-01-12 15:11:00,
2013-01-12 10:16:00,79.3,67.0,30.11,ESE,112,9.2,9.2,66,0.00,CLR,,0.00,WeatherDisplay:10.37,2013-01-12 15:16:00,
2013-01-12 10:21:00,79.5,67.2,30.11,SE,135,10.4,10.4,66,0.00,CLR,,0.00,WeatherDisplay:10.37,2013-01-12 15:21:00,
2013-01-12 10:26:00,79.5,67.2,30.11,SE,135,6.9,6.9,66,0.00,CLR,,0.00,WeatherDisplay:10.37,2013-01-12 15:26:00,
2013-01-12 10:31:00,79.9,67.5,30.11,SSE,158,6.9,6.9,66,0.00,CLR,,0.00,WeatherDisplay:10.37,2013-01-12 15:31:00,
2013-01-12 10:36:00,80.4,67.6,30.11,SE,135,8.1,8.1,65,0.00,CLR,,0.00,WeatherDisplay:10.37,2013-01-12 15:36:00,
2013-01-12 10:41:00,80.2,67.4,30.11,SE,135,6.9,6.9,65,0.00,CLR,,0.00,WeatherDisplay:10.37,2013-01-12 15:41:00,
2013-01-12 10:46:00,80.1,67.2,30.11,SE,135,6.9,6.9,65,0.00,CLR,,0.00,WeatherDisplay:10.37,2013-01-12 15:46:00,
2013-01-12 10:51:00,80.1,67.2,30.10,ESE,112,9.2,9.2,65,0.00,CLR,,0.00,WeatherDisplay:10.37,2013-01-12 15:51:00,
2013-01-12 10:56:00,80.1,67.2,30.10,ESE,112,5.8,5.8,65,0.00,CLR,,0.00,WeatherDisplay:10.37,2013-01-12 15:56:00,
2013-01-12 11:01:00,80.2,67.4,30.10,South,180,8.1,8.1,65,0.00,CLR,,0.00,WeatherDisplay:10.37,2013-01-12 16:01:00,
2013-01-12 11:06:00,80.4,67.1,30.10,SE,135,9.2,9.2,64,0.00,CLR,,0.00,WeatherDisplay:10.37,2013-01-12 16:06:00,
2013-01-12 11:11:00,80.8,67.9,30.10,SSE,158,11.5,11.5,65,0.00,CLR,,0.00,WeatherDisplay:10.37,2013-01-12 16:11:00,
2013-01-12 11:16:00,81.1,67.8,30.10,SE,135,9.2,9.2,64,0.00,CLR,,0.00,WeatherDisplay:10.37,2013-01-12 16:16:00,
2013-01-12 11:21:00,81.1,67.8,30.10,ESE,112,6.9,6.9,64,0.00,CLR,,0.00,WeatherDisplay:10.37,2013-01-12 16:21:00,
2013-01-12 11:26:00,81.3,67.5,30.10,SE,135,8.1,8.1,63,0.00,CLR,,0.00,WeatherDisplay:10.37,2013-01-12 16:26:00,
2013-01-12 11:31:00,81.3,67.5,30.09,NE,45,5.8,5.8,63,0.00,CLR,,0.00,WeatherDisplay:10.37,2013-01-12 16:31:00,
2013-01-12 11:36:00,81.5,67.7,30.09,SE,135,5.8,5.8,63,0.00,CLR,,0.00,WeatherDisplay:10.37,2013-01-12 16:36:00,
2013-01-12 11:41:00,81.9,67.6,30.09,ESE,112,6.9,6.9,62,0.00,CLR,,0.00,WeatherDisplay:10.37,2013-01-12 16:41:00,
2013-01-12 11:46:00,81.3,67.1,30.09,ESE,112,4.6,5.9,62,0.00,CLR,,0.00,WeatherDisplay:10.37,2013-01-12 16:46:00,
2013-01-12 11:51:00,81.3,67.5,30.09,SE,135,8.1,8.1,63,0.00,CLR,,0.00,WeatherDisplay:10.37,2013-01-12 16:51:00,
2013-01-12 11:56:00,81.3,67.1,30.09,SE,135,9.2,9.2,62,0.00,CLR,,0.00,WeatherDisplay:10.37,2013-01-12 16:56:00,
2013-01-12 12:01:00,81.7,67.4,30.09,SE,135,6.9,6.9,62,0.00,CLR,,0.00,WeatherDisplay:10.37,2013-01-12 17:01:00,
2013-01-12 12:06:00,81.9,67.6,30.09,SE,135,6.9,6.9,62,0.00,CLR,,0.00,WeatherDisplay:10.37,2013-01-12 17:06:00,
2013-01-12 12:11:00,81.9,67.6,30.08,SE,135,6.9,6.9,62,0.00,CLR,,0.00,WeatherDisplay:10.37,2013-01-12 17:11:00,
2013-01-12 12:16:00,82.2,67.9,30.08,South,180,6.9,6.9,62,0.00,CLR,,0.00,WeatherDisplay:10.37,2013-01-12 17:16:00,
2013-01-12 12:21:00,81.9,67.6,30.08,SE,135,6.9,6.9,62,0.00,CLR,,0.00,WeatherDisplay:10.37,2013-01-12 17:21:00,
2013-01-12 12:26:00,82.2,68.4,30.08,SE,135,5.8,5.8,63,0.00,CLR,,0.00,WeatherDisplay:10.37,2013-01-12 17:26:00,
2013-01-12 12:31:00,82.4,68.1,30.08,SE,135,6.9,6.9,62,0.00,CLR,,0.00,WeatherDisplay:10.37,2013-01-12 17:31:00,
2013-01-12 12:36:00,82.0,67.7,30.08,East,90,4.6,4.9,62,0.00,CLR,,0.00,WeatherDisplay:10.37,2013-01-12 17:36:00,
2013-01-12 12:41:00,81.9,68.0,30.08,SE,135,5.8,5.8,63,0.00,CLR,,0.00,WeatherDisplay:10.37,2013-01-12 17:41:00,
2013-01-12 12:46:00,81.9,68.0,30.08,SE,135,6.9,6.9,63,0.00,CLR,,0.00,WeatherDisplay:10.37,2013-01-12 17:46:00,
2013-01-12 12:51:00,81.9,67.6,30.08,SE,135,6.9,6.9,62,0.00,CLR,,0.00,WeatherDisplay:10.37,2013-01-12 17:51:00,
2013-01-12 12:56:00,81.7,67.9,30.08,SSE,158,8.1,8.1,63,0.00,CLR,,0.00,WeatherDisplay:10.37,2013-01-12 17:56:00,
2013-01-12 13:01:00,81.3,67.5,30.08,South,180,6.9,6.9,63,0.00,CLR,,0.00,WeatherDisplay:10.37,2013-01-12 18:01:00,
2013-01-12 13:06:00,81.5,67.7,30.08,ESE,112,4.6,4.6,63,0.00,CLR,,0.00,WeatherDisplay:10.37,2013-01-12 18:06:00,
2013-01-12 13:11:00,81.7,67.9,30.07,ENE,68,4.6,4.6,63,0.00,CLR,,0.00,WeatherDisplay:10.37,2013-01-12 18:11:00,
2013-01-12 13:16:00,81.9,68.0,30.07,SE,135,5.8,5.8,63,0.00,CLR,,0.00,WeatherDisplay:10.37,2013-01-12 18:16:00,
2013-01-12 13:21:00,81.7,67.4,30.07,SE,135,5.8,5.8,62,0.00,CLR,,0.00,WeatherDisplay:10.37,2013-01-12 18:21:00,
2013-01-12 13:26:00,81.9,68.0,30.07,ESE,112,6.9,6.9,63,0.00,CLR,,0.00,WeatherDisplay:10.37,2013-01-12 18:26:00,
2013-01-12 13:31:00,81.7,67.9,30.07,ESE,112,5.8,5.8,63,0.00,CLR,,0.00,WeatherDisplay:10.37,2013-01-12 18:31:00,
2013-01-12 13:36:00,81.7,67.9,30.07,SSE,158,4.6,5.2,63,0.00,CLR,,0.00,WeatherDisplay:10.37,2013-01-12 18:36:00,
2013-01-12 13:41:00,81.5,67.7,30.07,SE,135,4.6,4.7,63,0.00,CLR,,0.00,WeatherDisplay:10.37,2013-01-12 18:41:00,
2013-01-12 13:46:00,81.5,67.7,30.07,SE,135,4.6,4.6,63,0.00,CLR,,0.00,WeatherDisplay:10.37,2013-01-12 18:46:00,
2013-01-12 13:51:00,81.7,67.9,30.06,SSE,158,5.8,5.8,63,0.00,CLR,,0.00,WeatherDisplay:10.37,2013-01-12 18:51:00,
2013-01-12 13:56:00,81.7,67.4,30.06,East,90,3.5,4.7,62,0.00,CLR,,0.00,WeatherDisplay:10.37,2013-01-12 18:56:00,
2013-01-12 14:01:00,81.5,67.2,30.06,SE,135,6.9,6.9,62,0.00,CLR,,0.00,WeatherDisplay:10.37,2013-01-12 19:01:00,
2013-01-12 14:07:00,81.3,67.1,30.06,SE,135,6.9,6.9,62,0.00,CLR,,0.00,WeatherDisplay:10.37,2013-01-12 19:07:00,
2013-01-12 14:12:00,81.3,67.1,30.06,SE,135,9.2,9.2,62,0.00,CLR,,0.00,WeatherDisplay:10.37,2013-01-12 19:12:00,
2013-01-12 14:17:00,81.5,67.7,30.06,East,90,3.5,4.8,63,0.00,CLR,,0.00,WeatherDisplay:10.37,2013-01-12 19:17:00,
2013-01-12 14:22:00,81.1,67.3,30.06,SSE,158,5.8,5.8,63,0.00,CLR,,0.00,WeatherDisplay:10.37,2013-01-12 19:22:00,
2013-01-12 14:27:00,81.1,66.9,30.06,SE,135,4.6,4.6,62,0.00,CLR,,0.00,WeatherDisplay:10.37,2013-01-12 19:27:00,
2013-01-12 14:32:00,81.3,66.6,30.06,SSE,158,5.8,5.8,61,0.00,CLR,,0.00,WeatherDisplay:10.37,2013-01-12 19:32:00,
2013-01-12 14:37:00,81.1,66.9,30.06,ESE,112,3.5,4.5,62,0.00,CLR,,0.00,WeatherDisplay:10.37,2013-01-12 19:37:00,
2013-01-12 14:42:00,81.1,67.3,30.06,South,180,3.5,4.1,63,0.00,CLR,,0.00,WeatherDisplay:10.37,2013-01-12 19:42:00,
2013-01-12 14:47:00,81.0,66.7,30.06,ENE,68,4.6,4.6,62,0.00,CLR,,0.00,WeatherDisplay:10.37,2013-01-12 19:47:00,
2013-01-12 14:52:00,80.6,66.8,30.06,East,90,5.8,5.8,63,0.00,CLR,,0.00,WeatherDisplay:10.37,2013-01-12 19:52:00,
2013-01-12 14:57:00,80.4,66.7,30.06,South,180,4.6,4.6,63,0.00,CLR,,0.00,WeatherDisplay:10.37,2013-01-12 19:57:00,
2013-01-12 15:02:00,80.4,66.7,30.06,ESE,112,5.8,5.8,63,0.00,CLR,,0.00,WeatherDisplay:10.37,2013-01-12 20:02:00,
2013-01-12 15:07:00,80.2,66.5,30.05,East,90,6.9,6.9,63,0.00,CLR,,0.00,WeatherDisplay:10.37,2013-01-12 20:07:00,
2013-01-12 15:12:00,80.4,66.7,30.05,ESE,112,6.9,6.9,63,0.00,CLR,,0.00,WeatherDisplay:10.37,2013-01-12 20:12:00,
2013-01-12 15:17:00,80.2,67.0,30.05,ESE,112,4.6,4.6,64,0.00,CLR,,0.00,WeatherDisplay:10.37,2013-01-12 20:17:00,
2013-01-12 15:22:00,80.1,66.3,30.05,ESE,112,5.8,5.8,63,0.00,CLR,,0.00,WeatherDisplay:10.37,2013-01-12 20:22:00,
2013-01-12 15:27:00,80.2,66.5,30.06,SE,135,5.8,5.8,63,0.00,CLR,,0.00,WeatherDisplay:10.37,2013-01-12 20:27:00,
2013-01-12 15:32:00,80.4,66.7,30.06,NW,315,5.8,5.8,63,0.00,CLR,,0.00,WeatherDisplay:10.37,2013-01-12 20:32:00,
2013-01-12 15:37:00,79.9,66.2,30.06,SE,135,6.9,6.9,63,0.00,CLR,,0.00,WeatherDisplay:10.37,2013-01-12 20:37:00,
2013-01-12 15:42:00,79.7,66.4,30.06,ESE,112,8.1,8.1,64,0.00,CLR,,0.00,WeatherDisplay:10.37,2013-01-12 20:42:00,
2013-01-12 15:47:00,79.7,66.4,30.06,ESE,112,5.8,5.8,64,0.00,CLR,,0.00,WeatherDisplay:10.37,2013-01-12 20:47:00,
2013-01-12 15:52:00,79.7,66.4,30.06,NE,45,3.5,4.1,64,0.00,CLR,,0.00,WeatherDisplay:10.37,2013-01-12 20:52:00,
2013-01-12 15:57:00,79.5,66.3,30.06,SE,135,5.8,5.8,64,0.00,CLR,,0.00,WeatherDisplay:10.37,2013-01-12 20:57:00,
2013-01-12 16:02:00,79.3,66.1,30.06,ESE,112,3.5,3.8,64,0.00,CLR,,0.00,WeatherDisplay:10.37,2013-01-12 21:02:00,
2013-01-12 16:07:00,79.3,66.5,30.06,ESE,112,5.8,5.8,65,0.00,CLR,,0.00,WeatherDisplay:10.37,2013-01-12 21:07:00,
2013-01-12 16:12:00,79.2,65.9,30.06,SE,135,5.8,5.8,64,0.00,CLR,,0.00,WeatherDisplay:10.37,2013-01-12 21:12:00,
2013-01-12 16:17:00,79.0,65.8,30.06,ENE,68,6.9,6.9,64,0.00,CLR,,0.00,WeatherDisplay:10.37,2013-01-12 21:17:00,
2013-01-12 16:22:00,78.8,66.0,30.06,SE,135,5.8,5.8,65,0.00,CLR,,0.00,WeatherDisplay:10.37,2013-01-12 21:22:00,
2013-01-12 16:27:00,78.8,66.0,30.06,SE,135,5.8,5.8,65,0.00,CLR,,0.00,WeatherDisplay:10.37,2013-01-12 21:27:00,
2013-01-12 16:32:00,78.6,65.9,30.06,NE,45,3.5,3.5,65,0.00,CLR,,0.00,WeatherDisplay:10.37,2013-01-12 21:32:00,
2013-01-12 16:37:00,78.6,65.9,30.06,SE,135,4.6,4.6,65,0.00,CLR,,0.00,WeatherDisplay:10.37,2013-01-12 21:37:00,
2013-01-12 16:42:00,78.3,65.5,30.06,SE,135,4.6,4.6,65,0.00,CLR,,0.00,WeatherDisplay:10.37,2013-01-12 21:42:00,
2013-01-12 16:47:00,78.1,65.4,30.06,ENE,68,4.6,4.6,65,0.00,CLR,,0.00,WeatherDisplay:10.37,2013-01-12 21:47:00,
2013-01-12 16:52:00,77.9,65.2,30.06,ENE,68,4.6,4.6,65,0.00,CLR,,0.00,WeatherDisplay:10.37,2013-01-12 21:52:00,
2013-01-12 16:57:00,77.9,65.2,30.06,ENE,68,4.6,4.6,65,0.00,CLR,,0.00,WeatherDisplay:10.37,2013-01-12 21:57:00,
2013-01-12 17:02:00,77.5,64.8,30.06,ENE,68,3.5,3.5,65,0.00,CLR,,0.00,WeatherDisplay:10.37,2013-01-12 22:02:00,
2013-01-12 17:07:00,77.4,65.1,30.06,ESE,112,3.5,3.5,66,0.00,CLR,,0.00,WeatherDisplay:10.37,2013-01-12 22:07:00,
2013-01-12 17:12:00,77.4,65.5,30.06,ESE,112,4.6,4.6,67,0.00,CLR,,0.00,WeatherDisplay:10.37,2013-01-12 22:12:00,
2013-01-12 17:17:00,77.2,65.4,30.06,SE,135,5.8,5.8,67,0.00,CLR,,0.00,WeatherDisplay:10.37,2013-01-12 22:17:00,
2013-01-12 17:22:00,77.2,64.9,30.06,WNW,292,3.5,3.5,66,0.00,CLR,,0.00,WeatherDisplay:10.37,2013-01-12 22:22:00,
2013-01-12 17:27:00,77.0,65.2,30.06,East,90,4.6,4.6,67,0.00,CLR,,0.00,WeatherDisplay:10.37,2013-01-12 22:27:00,
2013-01-12 17:32:00,77.0,65.2,30.06,ESE,112,2.3,2.5,67,0.00,CLR,,0.00,WeatherDisplay:10.37,2013-01-12 22:32:00,
2013-01-12 17:37:00,76.8,65.5,30.06,ESE,112,3.5,3.5,68,0.00,CLR,,0.00,WeatherDisplay:10.37,2013-01-12 22:37:00,
2013-01-12 17:42:00,76.8,65.5,30.06,ESE,112,1.1,2.8,68,0.00,CLR,,0.00,WeatherDisplay:10.37,2013-01-12 22:42:00,
2013-01-12 17:47:00,76.6,65.3,30.07,East,90,3.5,3.5,68,0.00,CLR,,0.00,WeatherDisplay:10.37,2013-01-12 22:47:00,
2013-01-12 17:52:00,76.5,65.1,30.07,SE,135,2.3,2.3,68,0.00,CLR,,0.00,WeatherDisplay:10.37,2013-01-12 22:52:00,
2013-01-12 17:57:00,76.3,65.4,30.07,ESE,112,4.6,4.6,69,0.00,CLR,,0.00,WeatherDisplay:10.37,2013-01-12 22:57:00,
2013-01-12 18:02:00,76.3,65.4,30.07,SE,135,4.6,4.6,69,0.00,CLR,,0.00,WeatherDisplay:10.37,2013-01-12 23:02:00,
2013-01-12 18:07:00,76.5,65.5,30.07,ESE,112,4.6,4.6,69,0.00,CLR,,0.00,WeatherDisplay:10.37,2013-01-12 23:07:00,
2013-01-12 18:12:00,76.1,65.2,30.07,ESE,112,3.5,3.5,69,0.00,CLR,,0.00,WeatherDisplay:10.37,2013-01-12 23:12:00,
2013-01-12 18:17:00,76.1,65.2,30.07,ESE,112,3.5,3.5,69,0.00,CLR,,0.00,WeatherDisplay:10.37,2013-01-12 23:17:00,
2013-01-12 18:23:00,75.9,64.6,30.07,SE,135,3.5,3.5,68,0.00,CLR,,0.00,WeatherDisplay:10.37,2013-01-12 23:23:00,
2013-01-12 18:28:00,75.9,65.0,30.07,SSE,158,2.3,2.9,69,0.00,CLR,,0.00,WeatherDisplay:10.37,2013-01-12 23:28:00,
2013-01-12 18:33:00,75.7,64.8,30.07,SE,135,2.3,2.6,69,0.00,CLR,,0.00,WeatherDisplay:10.37,2013-01-12 23:33:00,
2013-01-12 18:38:00,75.7,64.8,30.07,ESE,112,4.6,4.6,69,0.00,CLR,,0.00,WeatherDisplay:10.37,2013-01-12 23:38:00,
2013-01-12 18:43:00,75.6,64.7,30.07,SE,135,4.6,4.6,69,0.00,CLR,,0.00,WeatherDisplay:10.37,2013-01-12 23:43:00,
2013-01-12 18:48:00,75.4,64.5,30.08,SE,135,4.6,4.6,69,0.00,CLR,,0.00,WeatherDisplay:10.37,2013-01-12 23:48:00,
2013-01-12 18:53:00,75.6,64.7,30.08,SE,135,4.6,4.6,69,0.00,CLR,,0.00,WeatherDisplay:10.37,2013-01-12 23:53:00,
2013-01-12 18:58:00,75.4,64.5,30.08,SE,135,4.6,0.0,69,0.00,CLR,,0.00,WeatherDisplay:10.37,2013-01-12 23:58:00,
2013-01-12 19:03:00,75.4,64.5,30.08,SE,135,0.0,0.0,69,0.00,CLR,,0.00,WeatherDisplay:10.37,2013-01-13 00:03:00,
2013-01-12 19:08:00,75.2,64.3,30.09,SE,135,0.0,0.0,69,0.00,CLR,,0.00,WeatherDisplay:10.37,2013-01-13 00:08:00,
2013-01-12 19:13:00,75.4,64.5,30.09,SE,135,0.0,0.0,69,0.00,CLR,,0.00,WeatherDisplay:10.37,2013-01-13 00:13:00,
2013-01-12 19:18:00,75.2,64.3,30.09,SE,135,0.0,0.0,69,0.00,CLR,,0.00,WeatherDisplay:10.37,2013-01-13 00:18:00,
2013-01-12 19:23:00,75.2,64.3,30.09,SE,135,0.0,0.0,69,0.00,CLR,,0.00,WeatherDisplay:10.37,2013-01-13 00:23:00,
2013-01-12 19:28:00,75.0,64.6,30.09,SE,135,0.0,0.0,70,0.00,CLR,,0.00,WeatherDisplay:10.37,2013-01-13 00:28:00,
2013-01-12 19:33:00,75.0,64.6,30.09,SE,135,0.0,0.0,70,0.00,CLR,,0.00,WeatherDisplay:10.37,2013-01-13 00:33:00,
2013-01-12 19:38:00,75.0,64.6,30.09,SE,135,0.0,0.0,70,0.00,CLR,,0.00,WeatherDisplay:10.37,2013-01-13 00:38:00,
2013-01-12 19:43:00,75.0,64.6,30.09,SE,135,0.0,0.0,70,0.00,CLR,,0.00,WeatherDisplay:10.37,2013-01-13 00:43:00,
2013-01-12 19:48:00,75.0,64.6,30.08,SE,135,0.0,0.0,70,0.00,CLR,,0.00,WeatherDisplay:10.37,2013-01-13 00:48:00,
2013-01-12 19:53:00,74.8,64.4,30.08,SE,135,0.0,0.0,70,0.00,CLR,,0.00,WeatherDisplay:10.37,2013-01-13 00:53:00,
2013-01-12 19:58:00,74.8,64.4,30.08,SE,135,0.0,0.0,70,0.00,CLR,,0.00,WeatherDisplay:10.37,2013-01-13 00:58:00,
2013-01-12 20:03:00,74.8,64.4,30.08,SE,135,0.0,0.0,70,0.00,CLR,,0.00,WeatherDisplay:10.37,2013-01-13 01:03:00,
2013-01-12 20:08:00,74.7,64.2,30.08,SE,135,0.0,0.0,70,0.00,CLR,,0.00,WeatherDisplay:10.37,2013-01-13 01:08:00,
2013-01-12 20:13:00,74.5,64.1,30.08,SE,135,0.0,0.0,70,0.00,CLR,,0.00,WeatherDisplay:10.37,2013-01-13 01:13:00,
2013-01-12 20:18:00,74.7,64.2,30.08,SE,135,0.0,0.0,70,0.00,CLR,,0.00,WeatherDisplay:10.37,2013-01-13 01:18:00,
2013-01-12 20:23:00,74.5,64.1,30.08,SE,135,0.0,0.0,70,0.00,CLR,,0.00,WeatherDisplay:10.37,2013-01-13 01:23:00,
2013-01-12 20:28:00,74.5,64.1,30.07,SE,135,0.0,0.0,70,0.00,CLR,,0.00,WeatherDisplay:10.37,2013-01-13 01:28:00,
2013-01-12 20:33:00,74.3,63.9,30.07,SE,135,0.0,0.0,70,0.00,CLR,,0.00,WeatherDisplay:10.37,2013-01-13 01:33:00,
2013-01-12 20:38:00,74.3,64.3,30.07,SE,135,0.0,0.0,71,0.00,CLR,,0.00,WeatherDisplay:10.37,2013-01-13 01:38:00,
2013-01-12 20:43:00,74.3,63.9,30.07,SE,135,0.0,0.0,70,0.00,CLR,,0.00,WeatherDisplay:10.37,2013-01-13 01:43:00,
2013-01-12 20:48:00,74.3,64.3,30.08,SE,135,0.0,0.0,71,0.00,CLR,,0.00,WeatherDisplay:10.37,2013-01-13 01:48:00,
2013-01-12 20:53:00,74.1,64.1,30.08,SE,135,0.0,0.0,71,0.00,CLR,,0.00,WeatherDisplay:10.37,2013-01-13 01:53:00,
2013-01-12 20:58:00,74.1,64.1,30.08,SE,135,0.0,0.0,71,0.00,CLR,,0.00,WeatherDisplay:10.37,2013-01-13 01:58:00,
2013-01-12 21:03:00,73.9,63.9,30.08,SE,135,0.0,0.0,71,0.00,CLR,,0.00,WeatherDisplay:10.37,2013-01-13 02:03:00,
2013-01-12 21:08:00,73.8,63.8,30.07,SE,135,0.0,0.0,71,0.00,CLR,,0.00,WeatherDisplay:10.37,2013-01-13 02:08:00,
2013-01-12 21:13:00,73.9,63.9,30.07,SE,135,0.0,0.0,71,0.00,CLR,,0.00,WeatherDisplay:10.37,2013-01-13 02:13:00,
2013-01-12 21:18:00,73.8,63.8,30.07,SE,135,0.0,0.0,71,0.00,CLR,,0.00,WeatherDisplay:10.37,2013-01-13 02:18:00,
2013-01-12 21:23:00,73.8,63.8,30.07,SE,135,0.0,0.0,71,0.00,CLR,,0.00,WeatherDisplay:10.37,2013-01-13 02:23:00,
2013-01-12 21:28:00,73.8,63.8,30.07,SE,135,0.0,0.0,71,0.00,CLR,,0.00,WeatherDisplay:10.37,2013-01-13 02:28:00,
2013-01-12 21:33:00,73.9,63.9,30.07,SE,135,0.0,0.0,71,0.00,CLR,,0.00,WeatherDisplay:10.37,2013-01-13 02:33:00,
2013-01-12 21:38:00,73.9,63.9,30.07,SE,135,0.0,0.0,71,0.00,CLR,,0.00,WeatherDisplay:10.37,2013-01-13 02:38:00,
2013-01-12 21:43:00,74.1,64.5,30.07,SE,135,0.0,0.0,72,0.00,CLR,,0.00,WeatherDisplay:10.37,2013-01-13 02:43:00,
2013-01-12 21:48:00,74.1,64.5,30.07,SE,135,0.0,0.0,72,0.00,CLR,,0.00,WeatherDisplay:10.37,2013-01-13 02:48:00,
2013-01-12 21:53:00,74.3,64.7,30.07,SE,135,0.0,0.0,72,0.00,CLR,,0.00,WeatherDisplay:10.37,2013-01-13 02:53:00,
2013-01-12 21:58:00,74.1,64.5,30.07,SE,135,0.0,0.0,72,0.00,CLR,,0.00,WeatherDisplay:10.37,2013-01-13 02:58:00,
2013-01-12 22:03:00,73.9,64.7,30.07,SE,135,0.0,0.0,73,0.00,CLR,,0.00,WeatherDisplay:10.37,2013-01-13 03:03:00,
2013-01-12 22:08:00,73.9,64.7,30.06,SE,135,0.0,0.0,73,0.00,CLR,,0.00,WeatherDisplay:10.37,2013-01-13 03:08:00,
2013-01-12 22:13:00,73.9,64.7,30.06,SE,135,0.0,0.0,73,0.00,CLR,,0.00,WeatherDisplay:10.37,2013-01-13 03:13:00,
2013-01-12 22:18:00,74.1,64.9,30.06,SE,135,0.0,0.0,73,0.00,CLR,,0.00,WeatherDisplay:10.37,2013-01-13 03:18:00,
2013-01-12 22:23:00,74.1,64.9,30.06,SE,135,0.0,0.0,73,0.00,CLR,,0.00,WeatherDisplay:10.37,2013-01-13 03:23:00,
2013-01-12 22:28:00,73.9,64.7,30.06,SE,135,0.0,0.0,73,0.00,CLR,,0.00,WeatherDisplay:10.37,2013-01-13 03:28:00,
2013-01-12 22:33:00,73.9,65.1,30.06,SE,135,0.0,0.0,74,0.00,CLR,,0.00,WeatherDisplay:10.37,2013-01-13 03:33:00,
2013-01-12 22:39:00,73.9,65.1,30.06,SE,135,0.0,0.0,74,0.00,CLR,,0.00,WeatherDisplay:10.37,2013-01-13 03:39:00,
2013-01-12 22:44:00,74.1,65.3,30.06,SE,135,0.0,0.0,74,0.00,CLR,,0.00,WeatherDisplay:10.37,2013-01-13 03:44:00,
2013-01-12 22:49:00,74.3,65.5,30.06,SE,135,0.0,0.0,74,0.00,CLR,,0.00,WeatherDisplay:10.37,2013-01-13 03:49:00,
2013-01-12 22:54:00,74.1,65.3,30.06,SE,135,0.0,0.0,74,0.00,CLR,,0.00,WeatherDisplay:10.37,2013-01-13 03:54:00,
2013-01-12 22:59:00,74.3,65.5,30.06,SE,135,0.0,0.0,74,0.00,CLR,,0.00,WeatherDisplay:10.37,2013-01-13 03:59:00,
2013-01-12 23:04:00,74.1,65.3,30.06,SE,135,0.0,0.0,74,0.00,CLR,,0.00,WeatherDisplay:10.37,2013-01-13 04:04:00,
2013-01-12 23:09:00,74.1,64.9,30.06,SE,135,0.0,0.0,73,0.00,CLR,,0.00,WeatherDisplay:10.37,2013-01-13 04:09:00,
2013-01-12 23:14:00,74.3,64.7,30.06,SE,135,0.0,0.0,72,0.00,CLR,,0.00,WeatherDisplay:10.37,2013-01-13 04:14:00,
2013-01-12 23:19:00,74.1,64.5,30.06,SE,135,0.0,0.0,72,0.00,CLR,,0.00,WeatherDisplay:10.37,2013-01-13 04:19:00,
2013-01-12 23:24:00,74.3,64.3,30.06,SE,135,0.0,0.0,71,0.00,CLR,,0.00,WeatherDisplay:10.37,2013-01-13 04:24:00,
2013-01-12 23:29:00,73.9,63.9,30.05,SE,135,0.0,0.0,71,0.00,CLR,,0.00,WeatherDisplay:10.37,2013-01-13 04:29:00,
2013-01-12 23:34:00,74.1,64.1,30.05,SE,135,0.0,0.0,71,0.00,CLR,,0.00,WeatherDisplay:10.37,2013-01-13 04:34:00,
2013-01-12 23:39:00,73.9,63.9,30.05,SE,135,0.0,0.0,71,0.00,CLR,,0.00,WeatherDisplay:10.37,2013-01-13 04:39:00,
2013-01-12 23:44:00,73.9,64.3,30.05,SE,135,0.0,0.0,72,0.00,CLR,,0.00,WeatherDisplay:10.37,2013-01-13 04:44:00,
2013-01-12 23:49:00,73.9,64.7,30.05,SE,135,0.0,0.0,73,0.00,CLR,,0.00,WeatherDisplay:10.37,2013-01-13 04:49:00,
2013-01-12 23:54:00,74.3,65.1,30.05,SE,135,0.0,0.0,73,0.00,CLR,,0.00,WeatherDisplay:10.37,2013-01-13 04:54:00,
2013-01-12 23:59:00,73.9,64.7,30.05,SE,135,0.0,0.0,73,0.00,CLR,,0.00,WeatherDisplay:10.37,2013-01-13 04:59:00,